Retour au catalogue

STARLINK-35671

ActifCommunicationsVLEO
NORAD 66392·PAYLOAD·🇺🇸 United States

Lancé Nov 8, 2025 depuis Cape Canaveral Space Force Station

Loading…

Prochains Passages (prochaines 24 heures)

TLE

FraisSource: CelesTrak SupGP

Époque: Sep 14, 2026, 20:47 UTC

1 66392C 25257N   26257.86645833  .00043529  00000+0  12883-2 0  2575
2 66392  53.1584  55.7634 0000915  93.7650 255.6110 15.34314510    17

Suivez STARLINK-35671 en temps réel avec AllMySat

Download on the App Store